Location: Poughquag
(41.6090°N, 73.6820°W)
Time: 04:46:19
(UTC-04:00)

STARLINK-1354 - Pass Details

Date: 29 May 2020
Orbit: 549 x 550 km, 53.0° (Epoch: 26 September)

Event Time Altitude Azimuth Distance (km) Brightness Sun altitude
Rises 04:35:09 0° 306° (NW) 2,719 7.0 -8.4°
Reaches altitude 10° 04:37:55 10° 325° (NW) 1,824 6.3 -8.0°
Maximum altitude 04:40:55 19° 12° (NNE) 1,341 6.3 -7.5°
Drops below altitude 10° 04:43:56 10° 58° (ENE) 1,822 8.0 -7.1°
Sets 04:46:41 0° 77° (ENE) 2,715 8.6 -6.7°
